Time,TemperatureF,DewpointF,PressureIn,WindDirection,WindDirectionDegrees,WindSpeedMPH,WindSpeedGustMPH,Humidity,HourlyPrecipIn,Conditions,Clouds,dailyrainin,SoftwareType,DateUTC
2013-05-08 00:00:00,50.9,48.1,29.91,NNE,24,0.0,0.0,90,0.00,RA,,0.00,WeatherDisplay:10.37,2013-05-08 04:00:00,
2013-05-08 01:00:00,49.5,48.1,29.91,NNE,24,0.0,2.0,95,0.00,OVC,,0.00,WeatherDisplay:10.37,2013-05-08 05:00:00,
2013-05-08 02:00:00,49.8,48.7,29.90,NNE,24,0.0,0.0,96,0.00,OVC,,0.00,WeatherDisplay:10.37,2013-05-08 06:00:00,
2013-05-08 03:00:00,49.4,48.0,29.88,NNE,24,0.0,1.0,95,0.00,SCT,,0.00,WeatherDisplay:10.37,2013-05-08 07:00:00,
2013-05-08 04:00:00,49.0,47.9,29.89,South,180,0.0,2.0,96,0.00,OVC,,0.00,WeatherDisplay:10.37,2013-05-08 08:00:00,
2013-05-08 05:00:00,49.7,48.9,29.90,South,180,0.0,1.0,97,0.00,-DZ,,0.00,WeatherDisplay:10.37,2013-05-08 09:00:00,
2013-05-08 06:00:00,50.2,49.3,29.91,South,180,0.0,0.0,97,0.00,OVC,,0.00,WeatherDisplay:10.37,2013-05-08 10:00:00,
2013-05-08 07:00:00,50.8,50.0,29.94,South,180,0.0,0.0,97,0.00,OVC,,0.00,WeatherDisplay:10.37,2013-05-08 11:00:00,
2013-05-08 08:00:00,51.4,50.6,29.96,South,180,0.0,1.0,97,0.00,OVC,,0.00,WeatherDisplay:10.37,2013-05-08 12:00:00,
2013-05-08 09:00:00,52.5,52.0,29.98,South,180,0.0,0.0,98,0.00,OVC,,0.00,WeatherDisplay:10.37,2013-05-08 13:00:00,
2013-05-08 10:00:00,56.6,54.6,29.98,South,180,0.0,3.0,93,0.00,OVC,,0.00,WeatherDisplay:10.37,2013-05-08 14:00:00,
2013-05-08 11:00:00,59.3,55.7,29.99,NE,49,0.0,4.0,88,0.00,OVC,,0.00,WeatherDisplay:10.37,2013-05-08 15:00:00,
2013-05-08 12:00:00,60.8,56.9,29.99,ENE,65,0.0,4.0,87,0.00,OVC,,0.00,WeatherDisplay:10.37,2013-05-08 16:00:00,
2013-05-08 13:00:00,63.3,58.1,29.97,NNE,21,1.0,7.0,83,0.00,OVC,,0.00,WeatherDisplay:10.37,2013-05-08 17:00:00,
2013-05-08 14:00:00,63.7,56.7,29.97,SSE,149,5.0,10.0,78,0.00,OVC,,0.00,WeatherDisplay:10.37,2013-05-08 18:00:00,
2013-05-08 15:00:00,65.3,56.8,29.97,SSE,153,1.0,7.0,74,0.00,OVC,,0.00,WeatherDisplay:10.37,2013-05-08 19:00:00,
2013-05-08 16:00:00,65.6,57.5,29.96,ESE,117,2.0,5.0,75,0.00,OVC,,0.00,WeatherDisplay:10.37,2013-05-08 20:00:00,
2013-05-08 17:00:00,66.8,58.6,29.95,East,86,0.0,3.0,75,0.00,OVC,,0.00,WeatherDisplay:10.37,2013-05-08 21:00:00,
2013-05-08 18:00:00,66.3,59.2,29.94,South,187,1.0,5.0,78,0.00,-RA,,0.00,WeatherDisplay:10.37,2013-05-08 22:00:00,
2013-05-08 19:00:00,64.1,58.8,29.94,South,188,0.0,2.0,83,0.00,BKN,,0.00,WeatherDisplay:10.37,2013-05-08 23:00:00,
2013-05-08 20:00:00,62.2,59.5,29.98,South,188,0.0,3.0,91,0.01,-RA,,0.01,WeatherDisplay:10.37,2013-05-09 00:00:00,
2013-05-08 21:00:00,59.8,57.7,29.99,South,188,0.0,3.0,93,0.01,SCT,,0.02,WeatherDisplay:10.37,2013-05-09 01:00:00,
2013-05-08 22:00:00,57.1,55.4,30.00,South,188,0.0,0.0,94,0.02,CLR,,0.04,WeatherDisplay:10.37,2013-05-09 02:00:00,
2013-05-08 23:00:00,54.8,53.1,30.02,South,188,0.0,0.0,94,0.03,RA,,0.07,WeatherDisplay:10.37,2013-05-09 03:00:00,